Weather History for Gainesville, GA

Change the Weather History Date:

Wednesday, September 12, 2012

  Actual Average Record
Temperature  
Mean Temperature 70 °F 73 °F  
Max Temperature 78 °F 82 °F 95 °F (1953)
Min Temperature 64 °F 64 °F 45 °F (1940)
Degree Days  
Heating Degree Days 0 0  
Month to date heating degree days 0  
Since 1 July heating degree days 0  
Cooling Degree Days 4 8  
Month to date cooling degree days 117  
Year to date cooling degree days 1443  
Growing Degree Days 20 (Base 50)    
Moisture  
Dew Point 57 °F    
Average Humidity 67    
Maximum Humidity 84    
Minimum Humidity 46    
Precipitation  
Precipitation 0.00 in 0.17 in 2.00 in (1988)
Month to date precipitation 1.78  
Year to date precipitation 38.03  
Sea Level Pressure  
Sea Level Pressure 30.29 in    
Wind  
Wind Speed 4 mph (East)    
Max Wind Speed 8 mph    
Max Gust Speed 17 mph    
Visibility 10 miles    
Events      
T = Trace of Precipitation, MM = Missing Value Source: NWS Daily Summary

Daily Weather History Graph

Daily Weather History Graph

Search for Another Location

Airport:

Trip Planner

Search our weather history database for the weather conditions in past years. The results will help you decide how hot, cold, wet, or windy it might be!

Date:

Astronomy

Sep. 12, 2012 Rise Set
Actual Time 7:16 AM EDT 7:45 PM EDT
Civil Twilight 6:51 AM EDT 8:10 PM EDT
Nautical Twilight 6:21 AM EDT 8:40 PM EDT
Astronomical Twilight 5:51 AM EDT 9:10 PM EDT
Moon 3:40 AM EDT (9/12) 5:26 PM EDT (9/12)
Length of Visible Light 13h 19m
Length of Day
12h 28m
Waning Crescent, 14% of the Moon is Illuminated
Sep 12
Waning Crescent
Sep 15
New
Sep 22
First Quarter
Sep 29
Full
Oct 8
Last Quarter

Hourly Weather History & Observations

Time (EDT) Temp. Dew Point Humidity Pressure Visibility Wind Dir Wind Speed Gust Speed Precip Events Conditions
12:53 AM 66.0 °F 57.9 °F 75% 30.28 in 10.0 mi East 3.5 mph - N/A   Mostly Cloudy
1:53 AM 66.0 °F 59.0 °F 78% 30.27 in 10.0 mi East 3.5 mph - N/A   Overcast
2:53 AM 66.0 °F 57.9 °F 75% 30.27 in 10.0 mi East 4.6 mph - N/A   Mostly Cloudy
3:53 AM 64.9 °F 59.0 °F 81% 30.26 in 10.0 mi East 4.6 mph - N/A   Overcast
4:53 AM 64.0 °F 57.9 °F 80% 30.26 in 10.0 mi East 3.5 mph - N/A   Partly Cloudy
5:53 AM 64.0 °F 57.9 °F 80% 30.27 in 10.0 mi ENE 4.6 mph - N/A   Overcast
6:53 AM 64.0 °F 59.0 °F 84% 30.29 in 10.0 mi Calm Calm - N/A   Overcast
7:53 AM 64.9 °F 59.0 °F 81% 30.32 in 10.0 mi Calm Calm - N/A   Overcast
8:53 AM 66.0 °F 60.1 °F 81% 30.33 in 10.0 mi ENE 5.8 mph - N/A   Overcast
9:53 AM 68.0 °F 60.1 °F 76% 30.35 in 10.0 mi ESE 4.6 mph - N/A   Overcast
10:53 AM 70.0 °F 57.0 °F 63% 30.36 in 10.0 mi Variable 3.5 mph - N/A   Overcast
11:53 AM 73.0 °F 57.0 °F 57% 30.35 in 10.0 mi ESE 5.8 mph - N/A   Partly Cloudy
12:53 PM 73.9 °F 55.9 °F 53% 30.33 in 10.0 mi Calm Calm - N/A   Clear
1:53 PM 75.9 °F 55.9 °F 50% 30.31 in 10.0 mi East 5.8 mph - N/A   Partly Cloudy
2:53 PM 75.9 °F 54.0 °F 46% 30.28 in 10.0 mi SE 8.1 mph 17.3 mph N/A   Partly Cloudy
3:53 PM 75.9 °F 55.0 °F 48% 30.26 in 10.0 mi ESE 8.1 mph - N/A   Clear
5:53 PM 75.9 °F 55.0 °F 48% 30.25 in 10.0 mi ESE 6.9 mph - N/A   Clear
6:53 PM 73.9 °F 55.0 °F 52% 30.25 in 10.0 mi ESE 5.8 mph - N/A   Clear
7:53 PM 71.1 °F 57.0 °F 61% 30.25 in 10.0 mi ESE 3.5 mph - N/A   Clear
9:53 PM 68.0 °F 55.9 °F 65% 30.27 in 10.0 mi East 3.5 mph - N/A   Clear
10:53 PM 66.0 °F 55.9 °F 70% 30.28 in 10.0 mi East 3.5 mph - N/A   Clear
11:53 PM 64.9 °F 55.9 °F 73% 30.29 in 10.0 mi East 3.5 mph - N/A   Clear